Time,TemperatureF,DewpointF,PressureIn,WindDirection,WindDirectionDegrees,WindSpeedMPH,WindSpeedGustMPH,Humidity,HourlyPrecipIn,Conditions,Clouds,dailyrainin,SoftwareType,DateUTC
2013-11-28 00:01:00,17.9,12.5,30.35,WNW,295,0.0,0.0,79,0.00,,CLR,0.00,VWS V14.01,2013-11-28 06:01:00,
2013-11-28 00:06:00,17.9,12.5,30.34,WNW,295,0.0,0.0,79,0.00,,CLR,0.00,VWS V14.01,2013-11-28 06:06:00,
2013-11-28 00:11:00,17.9,12.5,30.34,WNW,295,0.0,0.0,79,0.00,,CLR,0.00,VWS V14.01,2013-11-28 06:11:00,
2013-11-28 00:16:00,18.0,12.6,30.35,WNW,295,0.0,0.0,79,0.00,,CLR,0.00,VWS V14.01,2013-11-28 06:16:00,
2013-11-28 00:21:00,18.1,12.7,30.35,WNW,295,0.0,0.0,79,0.00,,CLR,0.00,VWS V14.01,2013-11-28 06:21:00,
2013-11-28 00:26:00,18.3,12.6,30.36,WNW,295,0.0,0.0,78,0.00,,CLR,0.00,VWS V14.01,2013-11-28 06:26:00,
2013-11-28 00:31:00,18.4,12.7,30.36,WNW,295,0.0,0.0,78,0.00,,CLR,0.00,VWS V14.01,2013-11-28 06:31:00,
2013-11-28 00:36:00,18.8,12.8,30.36,West,259,3.0,4.0,77,0.00,,CLR,0.00,VWS V14.01,2013-11-28 06:36:00,
2013-11-28 00:41:00,19.4,12.8,30.35,SW,234,0.0,4.0,75,0.00,,CLR,0.00,VWS V14.01,2013-11-28 06:41:00,
2013-11-28 00:46:00,19.8,12.9,30.35,SW,232,0.0,2.0,74,0.00,,CLR,0.00,VWS V14.01,2013-11-28 06:46:00,
2013-11-28 00:51:00,19.9,12.7,30.35,SW,231,0.0,2.0,73,0.00,,CLR,0.00,VWS V14.01,2013-11-28 06:51:00,
2013-11-28 00:56:00,20.0,12.8,30.34,SW,231,0.0,0.0,73,0.00,,CLR,0.00,VWS V14.01,2013-11-28 06:56:00,
2013-11-28 01:01:00,20.0,12.4,30.35,SW,222,0.0,3.0,72,0.00,,CLR,0.00,VWS V14.01,2013-11-28 07:01:00,
2013-11-28 01:06:00,20.2,12.6,30.34,SW,221,0.0,2.0,72,0.00,,CLR,0.00,VWS V14.01,2013-11-28 07:06:00,
2013-11-28 01:11:00,20.2,12.6,30.34,SSW,211,0.0,3.0,72,0.00,,CLR,0.00,VWS V14.01,2013-11-28 07:11:00,
2013-11-28 01:16:00,20.3,12.7,30.34,SSW,211,0.0,2.0,72,0.00,,CLR,0.00,VWS V14.01,2013-11-28 07:16:00,
2013-11-28 01:21:00,20.3,12.7,30.34,SSW,211,0.0,2.0,72,0.00,,CLR,0.00,VWS V14.01,2013-11-28 07:21:00,
2013-11-28 01:26:00,20.3,12.4,30.34,SSW,209,2.0,2.0,71,0.00,,CLR,0.00,VWS V14.01,2013-11-28 07:26:00,
2013-11-28 01:31:00,20.6,12.7,30.34,SSW,205,1.0,5.0,71,0.00,,CLR,0.00,VWS V14.01,2013-11-28 07:31:00,
2013-11-28 01:36:00,20.7,12.5,30.34,SSW,205,1.0,3.0,70,0.00,,CLR,0.00,VWS V14.01,2013-11-28 07:36:00,
2013-11-28 01:41:00,20.8,12.6,30.33,South,190,4.0,6.0,70,0.00,,CLR,0.00,VWS V14.01,2013-11-28 07:41:00,
2013-11-28 01:46:00,20.9,12.7,30.33,South,186,1.0,6.0,70,0.00,,CLR,0.00,VWS V14.01,2013-11-28 07:46:00,
2013-11-28 01:51:00,20.9,12.7,30.34,South,186,0.0,6.0,70,0.00,,CLR,0.00,VWS V14.01,2013-11-28 07:51:00,
2013-11-28 01:56:00,20.9,12.7,30.35,South,186,0.0,2.0,70,0.00,,CLR,0.00,VWS V14.01,2013-11-28 07:56:00,
2013-11-28 02:01:00,20.9,12.7,30.35,South,186,0.0,2.0,70,0.00,,CLR,0.00,VWS V14.01,2013-11-28 08:01:00,
2013-11-28 02:06:00,20.9,12.7,30.35,South,186,0.0,2.0,70,0.00,,CLR,0.00,VWS V14.01,2013-11-28 08:06:00,
2013-11-28 02:11:00,20.8,12.9,30.35,South,186,0.0,2.0,71,0.00,,CLR,0.00,VWS V14.01,2013-11-28 08:11:00,
2013-11-28 02:16:00,20.8,12.9,30.36,South,186,0.0,0.0,71,0.00,,CLR,0.00,VWS V14.01,2013-11-28 08:16:00,
2013-11-28 02:21:00,20.8,12.9,30.35,South,186,0.0,0.0,71,0.00,,CLR,0.00,VWS V14.01,2013-11-28 08:21:00,
2013-11-28 02:26:00,20.6,12.7,30.35,South,186,0.0,0.0,71,0.00,,CLR,0.00,VWS V14.01,2013-11-28 08:26:00,
2013-11-28 02:31:00,20.4,12.8,30.35,South,186,0.0,0.0,72,0.00,,CLR,0.00,VWS V14.01,2013-11-28 08:31:00,
2013-11-28 02:36:00,20.2,12.6,30.36,South,186,0.0,0.0,72,0.00,,CLR,0.00,VWS V14.01,2013-11-28 08:36:00,
2013-11-28 02:41:00,20.0,12.8,30.36,South,186,0.0,0.0,73,0.00,,CLR,0.00,VWS V14.01,2013-11-28 08:41:00,
2013-11-28 02:46:00,19.8,12.6,30.35,South,186,0.0,0.0,73,0.00,,CLR,0.00,VWS V14.01,2013-11-28 08:46:00,
2013-11-28 02:51:00,19.7,12.8,30.35,South,186,0.0,0.0,74,0.00,,CLR,0.00,VWS V14.01,2013-11-28 08:51:00,
2013-11-28 02:56:00,19.7,12.8,30.36,South,186,0.0,2.0,74,0.00,,CLR,0.00,VWS V14.01,2013-11-28 08:56:00,
2013-11-28 03:02:00,19.9,13.0,30.35,South,186,0.0,0.0,74,0.00,,CLR,0.00,VWS V14.01,2013-11-28 09:02:00,
2013-11-28 03:07:00,19.9,13.0,30.35,South,186,0.0,0.0,74,0.00,,CLR,0.00,VWS V14.01,2013-11-28 09:07:00,
2013-11-28 03:12:00,20.0,13.1,30.35,South,186,1.0,1.0,74,0.00,,CLR,0.00,VWS V14.01,2013-11-28 09:12:00,
2013-11-28 03:17:00,20.3,13.4,30.35,South,184,2.0,7.0,74,0.00,,CLR,0.00,VWS V14.01,2013-11-28 09:17:00,
2013-11-28 03:22:00,20.6,13.3,30.36,South,184,0.0,0.0,73,0.00,,CLR,0.00,VWS V14.01,2013-11-28 09:22:00,
2013-11-28 03:27:00,20.6,13.3,30.36,South,184,0.0,0.0,73,0.00,,CLR,0.00,VWS V14.01,2013-11-28 09:27:00,
2013-11-28 03:32:00,20.7,13.4,30.36,South,184,0.0,1.0,73,0.00,,CLR,0.00,VWS V14.01,2013-11-28 09:32:00,
2013-11-28 03:37:00,20.7,13.4,30.36,South,184,0.0,1.0,73,0.00,,CLR,0.00,VWS V14.01,2013-11-28 09:37:00,
2013-11-28 03:42:00,20.7,13.4,30.37,South,184,0.0,0.0,73,0.00,,CLR,0.00,VWS V14.01,2013-11-28 09:42:00,
2013-11-28 03:47:00,20.6,13.3,30.37,South,184,0.0,0.0,73,0.00,,CLR,0.00,VWS V14.01,2013-11-28 09:47:00,
2013-11-28 03:52:00,20.6,13.0,30.36,South,184,0.0,0.0,72,0.00,,CLR,0.00,VWS V14.01,2013-11-28 09:52:00,
2013-11-28 03:57:00,20.5,13.2,30.36,South,184,0.0,3.0,73,0.00,,CLR,0.00,VWS V14.01,2013-11-28 09:57:00,
2013-11-28 04:02:00,20.4,13.1,30.36,South,184,0.0,0.0,73,0.00,,CLR,0.00,VWS V14.01,2013-11-28 10:02:00,
2013-11-28 04:07:00,20.4,13.1,30.35,South,183,0.0,1.0,73,0.00,,CLR,0.00,VWS V14.01,2013-11-28 10:07:00,
2013-11-28 04:12:00,20.4,13.1,30.35,South,183,0.0,0.0,73,0.00,,CLR,0.00,VWS V14.01,2013-11-28 10:12:00,
2013-11-28 04:17:00,20.3,13.0,30.35,South,182,0.0,4.0,73,0.00,,CLR,0.00,VWS V14.01,2013-11-28 10:17:00,
2013-11-28 04:22:00,20.3,13.0,30.35,South,181,0.0,3.0,73,0.00,,CLR,0.00,VWS V14.01,2013-11-28 10:22:00,
2013-11-28 04:27:00,20.6,13.3,30.35,SSW,192,2.0,8.0,73,0.00,,CLR,0.00,VWS V14.01,2013-11-28 10:27:00,
2013-11-28 04:32:00,20.9,13.6,30.35,SSW,192,0.0,1.0,73,0.00,,CLR,0.00,VWS V14.01,2013-11-28 10:32:00,
2013-11-28 04:37:00,21.3,13.7,30.35,South,175,0.0,6.0,72,0.00,,CLR,0.00,VWS V14.01,2013-11-28 10:37:00,
2013-11-28 04:42:00,21.6,13.7,30.35,South,177,1.0,2.0,71,0.00,,CLR,0.00,VWS V14.01,2013-11-28 10:42:00,
2013-11-28 04:47:00,21.8,13.9,30.35,South,184,6.0,9.0,71,0.00,,CLR,0.00,VWS V14.01,2013-11-28 10:47:00,
2013-11-28 04:52:00,22.0,13.7,30.36,South,184,4.0,4.0,70,0.00,,CLR,0.00,VWS V14.01,2013-11-28 10:52:00,
2013-11-28 04:57:00,22.1,13.8,30.35,South,184,6.0,6.0,70,0.00,,CLR,0.00,VWS V14.01,2013-11-28 10:57:00,
2013-11-28 05:02:00,22.2,13.6,30.36,South,184,2.0,5.0,69,0.00,,CLR,0.00,VWS V14.01,2013-11-28 11:02:00,
2013-11-28 05:07:00,22.2,13.6,30.35,South,180,3.0,7.0,69,0.00,,CLR,0.00,VWS V14.01,2013-11-28 11:07:00,
2013-11-28 05:12:00,22.3,13.7,30.36,South,180,5.0,9.0,69,0.00,,CLR,0.00,VWS V14.01,2013-11-28 11:12:00,
2013-11-28 05:17:00,22.5,13.9,30.36,South,189,10.0,10.0,69,0.00,,CLR,0.00,VWS V14.01,2013-11-28 11:17:00,
2013-11-28 05:22:00,22.5,13.9,30.36,South,184,4.0,5.0,69,0.00,,CLR,0.00,VWS V14.01,2013-11-28 11:22:00,
2013-11-28 05:27:00,22.6,13.6,30.35,South,180,2.0,7.0,68,0.00,,CLR,0.00,VWS V14.01,2013-11-28 11:27:00,
2013-11-28 05:32:00,22.6,13.6,30.35,South,179,6.0,7.0,68,0.00,,CLR,0.00,VWS V14.01,2013-11-28 11:32:00,
2013-11-28 05:37:00,22.7,13.7,30.35,South,178,4.0,8.0,68,0.00,,CLR,0.00,VWS V14.01,2013-11-28 11:37:00,
2013-11-28 05:42:00,22.7,13.7,30.35,South,181,5.0,5.0,68,0.00,,CLR,0.00,VWS V14.01,2013-11-28 11:42:00,
2013-11-28 05:47:00,22.7,13.7,30.35,South,186,0.0,11.0,68,0.00,,CLR,0.00,VWS V14.01,2013-11-28 11:47:00,
2013-11-28 05:52:00,22.6,13.6,30.35,South,175,1.0,6.0,68,0.00,,CLR,0.00,VWS V14.01,2013-11-28 11:52:00,
2013-11-28 05:57:00,22.6,14.0,30.35,South,180,3.0,9.0,69,0.00,,CLR,0.00,VWS V14.01,2013-11-28 11:57:00,
2013-11-28 06:02:00,22.8,13.8,30.35,SSW,195,5.0,8.0,68,0.00,,CLR,0.00,VWS V14.01,2013-11-28 12:02:00,
2013-11-28 06:07:00,23.0,14.0,30.35,South,175,4.0,13.0,68,0.00,,CLR,0.00,VWS V14.01,2013-11-28 12:07:00,
2013-11-28 06:12:00,23.1,14.1,30.35,South,185,2.0,6.0,68,0.00,,CLR,0.00,VWS V14.01,2013-11-28 12:12:00,
2013-11-28 06:17:00,23.1,14.1,30.35,South,190,7.0,11.0,68,0.00,,CLR,0.00,VWS V14.01,2013-11-28 12:17:00,
2013-11-28 06:22:00,23.1,14.1,30.35,South,172,6.0,8.0,68,0.00,,CLR,0.00,VWS V14.01,2013-11-28 12:22:00,
2013-11-28 06:27:00,23.3,14.3,30.35,South,178,4.0,15.0,68,0.00,,CLR,0.00,VWS V14.01,2013-11-28 12:27:00,
2013-11-28 06:32:00,23.4,14.4,30.34,SSW,200,10.0,13.0,68,0.00,,CLR,0.00,VWS V14.01,2013-11-28 12:32:00,
2013-11-28 06:37:00,23.6,14.3,30.34,SSW,205,8.0,13.0,67,0.00,,CLR,0.00,VWS V14.01,2013-11-28 12:37:00,
2013-11-28 06:42:00,23.6,14.3,30.34,South,184,8.0,8.0,67,0.00,,CLR,0.00,VWS V14.01,2013-11-28 12:42:00,
2013-11-28 06:47:00,23.7,14.4,30.33,South,173,12.0,17.0,67,0.00,,CLR,0.00,VWS V14.01,2013-11-28 12:47:00,
2013-11-28 06:52:00,24.0,14.6,30.34,South,180,8.0,13.0,67,0.00,,CLR,0.00,VWS V14.01,2013-11-28 12:52:00,
2013-11-28 06:57:00,24.0,14.6,30.34,South,190,8.0,18.0,67,0.00,,CLR,0.00,VWS V14.01,2013-11-28 12:57:00,
2013-11-28 07:02:00,24.0,14.6,30.34,SSW,198,7.0,11.0,67,0.00,,CLR,0.00,VWS V14.01,2013-11-28 13:02:00,
2013-11-28 07:07:00,24.1,14.7,30.34,South,184,14.0,16.0,67,0.00,,CLR,0.00,VWS V14.01,2013-11-28 13:07:00,
2013-11-28 07:12:00,24.2,14.8,30.34,South,188,18.0,19.0,67,0.00,,CLR,0.00,VWS V14.01,2013-11-28 13:12:00,
2013-11-28 07:17:00,24.3,14.9,30.33,South,171,5.0,19.0,67,0.00,,CLR,0.00,VWS V14.01,2013-11-28 13:17:00,
2013-11-28 07:22:00,24.3,15.3,30.33,South,180,6.0,10.0,68,0.00,,CLR,0.00,VWS V14.01,2013-11-28 13:22:00,
2013-11-28 07:27:00,24.4,15.4,30.33,SSW,205,11.0,18.0,68,0.00,,CLR,0.00,VWS V14.01,2013-11-28 13:27:00,
2013-11-28 07:32:00,24.5,15.5,30.33,SSW,192,8.0,8.0,68,0.00,,CLR,0.00,VWS V14.01,2013-11-28 13:32:00,
2013-11-28 07:37:00,24.6,15.6,30.33,SSW,206,7.0,15.0,68,0.00,,CLR,0.00,VWS V14.01,2013-11-28 13:37:00,
2013-11-28 07:42:00,24.9,15.9,30.33,South,188,10.0,21.0,68,0.00,,CLR,0.00,VWS V14.01,2013-11-28 13:42:00,
2013-11-28 07:47:00,25.1,16.0,30.33,South,187,9.0,21.0,68,0.00,,CLR,0.00,VWS V14.01,2013-11-28 13:47:00,
2013-11-28 07:52:00,25.2,15.8,30.33,SW,225,7.0,11.0,67,0.00,,CLR,0.00,VWS V14.01,2013-11-28 13:52:00,
2013-11-28 07:57:00,25.4,16.3,30.33,SSW,200,13.0,18.0,68,0.00,,CLR,0.00,VWS V14.01,2013-11-28 13:57:00,
2013-11-28 08:02:00,25.6,16.2,30.33,South,184,11.0,13.0,67,0.00,,CLR,0.00,VWS V14.01,2013-11-28 14:02:00,
2013-11-28 08:07:00,25.9,16.5,30.33,SSE,165,6.0,13.0,67,0.00,,CLR,0.00,VWS V14.01,2013-11-28 14:07:00,
2013-11-28 08:12:00,26.1,16.7,30.33,SSW,193,7.0,11.0,67,0.00,,CLR,0.00,VWS V14.01,2013-11-28 14:12:00,
2013-11-28 08:17:00,26.4,16.9,30.33,South,190,8.0,14.0,67,0.00,,CLR,0.00,VWS V14.01,2013-11-28 14:17:00,
2013-11-28 08:22:00,26.7,16.9,30.33,SSW,193,7.0,12.0,66,0.00,,CLR,0.00,VWS V14.01,2013-11-28 14:22:00,
2013-11-28 08:27:00,27.0,17.2,30.33,South,186,9.0,16.0,66,0.00,,CLR,0.00,VWS V14.01,2013-11-28 14:27:00,
2013-11-28 08:32:00,27.4,17.5,30.32,South,175,11.0,14.0,66,0.00,,CLR,0.00,VWS V14.01,2013-11-28 14:32:00,
2013-11-28 08:37:00,27.8,17.6,30.32,SSW,200,9.0,15.0,65,0.00,,CLR,0.00,VWS V14.01,2013-11-28 14:37:00,
2013-11-28 08:42:00,28.1,17.9,30.32,South,191,7.0,17.0,65,0.00,,CLR,0.00,VWS V14.01,2013-11-28 14:42:00,
2013-11-28 08:47:00,28.5,18.2,30.32,South,184,8.0,17.0,65,0.00,,CLR,0.00,VWS V14.01,2013-11-28 14:47:00,
2013-11-28 08:52:00,28.8,18.2,30.32,South,188,9.0,12.0,64,0.00,,CLR,0.00,VWS V14.01,2013-11-28 14:52:00,
2013-11-28 08:57:00,29.2,18.5,30.33,South,175,5.0,13.0,64,0.00,,CLR,0.00,VWS V14.01,2013-11-28 14:57:00,
2013-11-28 09:02:00,29.6,18.6,30.32,South,175,2.0,6.0,63,0.00,,CLR,0.00,VWS V14.01,2013-11-28 15:02:00,
2013-11-28 09:07:00,30.1,19.0,30.32,SSW,194,7.0,14.0,63,0.00,,CLR,0.00,VWS V14.01,2013-11-28 15:07:00,
2013-11-28 09:12:00,30.7,19.2,30.32,SSW,196,8.0,8.0,62,0.00,,CLR,0.00,VWS V14.01,2013-11-28 15:12:00,
2013-11-28 09:17:00,31.3,19.4,30.32,South,179,10.0,20.0,61,0.00,,CLR,0.00,VWS V14.01,2013-11-28 15:17:00,
2013-11-28 09:22:00,31.7,19.4,30.32,SSW,197,11.0,15.0,60,0.00,,CLR,0.00,VWS V14.01,2013-11-28 15:22:00,
2013-11-28 09:27:00,32.0,19.7,30.32,South,177,9.0,18.0,60,0.00,,CLR,0.00,VWS V14.01,2013-11-28 15:27:00,
2013-11-28 09:32:00,32.4,20.1,30.32,South,186,9.0,11.0,60,0.00,,CLR,0.00,VWS V14.01,2013-11-28 15:32:00,
2013-11-28 09:37:00,32.6,19.9,30.33,South,191,11.0,18.0,59,0.00,,CLR,0.00,VWS V14.01,2013-11-28 15:37:00,
2013-11-28 09:42:00,32.9,20.2,30.33,South,182,10.0,17.0,59,0.00,,CLR,0.00,VWS V14.01,2013-11-28 15:42:00,
2013-11-28 09:47:00,33.3,20.5,30.32,SSW,211,11.0,17.0,59,0.00,,CLR,0.00,VWS V14.01,2013-11-28 15:47:00,
2013-11-28 09:52:00,33.8,21.0,30.32,SSW,200,11.0,12.0,59,0.00,,CLR,0.00,VWS V14.01,2013-11-28 15:52:00,
2013-11-28 09:57:00,34.3,21.1,30.32,SSW,200,8.0,14.0,58,0.00,,CLR,0.00,VWS V14.01,2013-11-28 15:57:00,
2013-11-28 10:02:00,34.7,21.0,30.33,South,170,12.0,14.0,57,0.00,,CLR,0.00,VWS V14.01,2013-11-28 16:02:00,
2013-11-28 10:07:00,34.8,21.5,30.33,SSW,194,7.0,15.0,58,0.00,,CLR,0.00,VWS V14.01,2013-11-28 16:07:00,
2013-11-28 10:12:00,35.1,21.4,30.33,South,186,21.0,21.0,57,0.00,,CLR,0.00,VWS V14.01,2013-11-28 16:12:00,
2013-11-28 10:17:00,35.1,21.4,30.33,SSW,211,6.0,21.0,57,0.00,,CLR,0.00,VWS V14.01,2013-11-28 16:17:00,
2013-11-28 10:22:00,35.3,21.6,30.32,SSW,212,8.0,10.0,57,0.00,,CLR,0.00,VWS V14.01,2013-11-28 16:22:00,
2013-11-28 10:27:00,35.6,21.9,30.32,SSW,202,4.0,18.0,57,0.00,,CLR,0.00,VWS V14.01,2013-11-28 16:27:00,
2013-11-28 10:32:00,35.9,22.2,30.32,South,184,7.0,7.0,57,0.00,,CLR,0.00,VWS V14.01,2013-11-28 16:32:00,
2013-11-28 10:37:00,36.4,22.6,30.32,South,171,12.0,15.0,57,0.00,,CLR,0.00,VWS V14.01,2013-11-28 16:37:00,
2013-11-28 10:42:00,36.5,22.7,30.32,South,190,7.0,11.0,57,0.00,,CLR,0.00,VWS V14.01,2013-11-28 16:42:00,
2013-11-28 10:47:00,37.0,23.2,30.31,South,190,7.0,12.0,57,0.00,,CLR,0.00,VWS V14.01,2013-11-28 16:47:00,
2013-11-28 10:52:00,37.8,23.1,30.31,SW,217,6.0,11.0,55,0.00,,CLR,0.00,VWS V14.01,2013-11-28 16:52:00,
2013-11-28 10:57:00,38.3,23.1,30.31,West,259,4.0,12.0,54,0.00,,CLR,0.00,VWS V14.01,2013-11-28 16:57:00,
2013-11-28 11:02:00,38.8,22.7,30.31,WSW,257,2.0,11.0,52,0.00,,CLR,0.00,VWS V14.01,2013-11-28 17:02:00,
2013-11-28 11:07:00,39.2,23.1,30.31,South,185,9.0,13.0,52,0.00,,CLR,0.00,VWS V14.01,2013-11-28 17:07:00,
2013-11-28 11:12:00,39.5,22.9,30.30,SW,221,11.0,12.0,51,0.00,,CLR,0.00,VWS V14.01,2013-11-28 17:12:00,
2013-11-28 11:21:00,39.5,22.9,30.30,SSW,192,9.0,13.0,51,0.00,,CLR,0.00,VWS V14.01,2013-11-28 17:21:00,
2013-11-28 11:28:00,40.0,23.4,30.30,SSW,194,9.0,14.0,51,0.00,,CLR,0.00,VWS V14.01,2013-11-28 17:28:00,
2013-11-28 11:33:00,40.7,23.5,30.29,West,273,12.0,12.0,50,0.00,,CLR,0.00,VWS V14.01,2013-11-28 17:33:00,
2013-11-28 11:38:00,40.5,22.9,30.30,SW,231,8.0,13.0,49,0.00,,CLR,0.00,VWS V14.01,2013-11-28 17:38:00,
2013-11-28 11:43:00,40.8,23.1,30.29,SSW,212,4.0,11.0,49,0.00,,CLR,0.00,VWS V14.01,2013-11-28 17:43:00,
2013-11-28 11:48:00,40.6,22.5,30.29,SSW,194,6.0,18.0,48,0.00,,CLR,0.00,VWS V14.01,2013-11-28 17:48:00,
2013-11-28 11:53:00,40.8,23.1,30.30,West,279,2.0,11.0,49,0.00,,CLR,0.00,VWS V14.01,2013-11-28 17:53:00,
2013-11-28 11:58:00,40.9,23.2,30.30,West,259,11.0,15.0,49,0.00,,CLR,0.00,VWS V14.01,2013-11-28 17:58:00,
2013-11-28 12:03:00,40.8,22.6,30.29,SW,217,6.0,12.0,48,0.00,,CLR,0.00,VWS V14.01,2013-11-28 18:03:00,
2013-11-28 12:08:00,41.1,22.9,30.30,WSW,248,8.0,14.0,48,0.00,,CLR,0.00,VWS V14.01,2013-11-28 18:08:00,
2013-11-28 12:13:00,41.3,23.1,30.30,West,261,9.0,11.0,48,0.00,,CLR,0.00,VWS V14.01,2013-11-28 18:13:00,
2013-11-28 12:18:00,41.3,22.6,30.29,WSW,246,5.0,14.0,47,0.00,,CLR,0.00,VWS V14.01,2013-11-28 18:18:00,
2013-11-28 12:23:00,41.5,23.8,30.29,SW,233,5.0,11.0,49,0.00,,CLR,0.00,VWS V14.01,2013-11-28 18:23:00,
2013-11-28 12:28:00,41.8,23.1,30.29,WSW,257,7.0,12.0,47,0.00,,CLR,0.00,VWS V14.01,2013-11-28 18:28:00,
2013-11-28 12:33:00,41.5,23.3,30.29,WSW,238,4.0,9.0,48,0.00,,CLR,0.00,VWS V14.01,2013-11-28 18:33:00,
2013-11-28 12:38:00,41.8,23.6,30.29,West,270,5.0,15.0,48,0.00,,CLR,0.00,VWS V14.01,2013-11-28 18:38:00,
2013-11-28 12:43:00,41.8,23.6,30.29,West,271,9.0,12.0,48,0.00,,CLR,0.00,VWS V14.01,2013-11-28 18:43:00,
2013-11-28 12:48:00,41.8,23.6,30.28,SW,224,8.0,13.0,48,0.00,,CLR,0.00,VWS V14.01,2013-11-28 18:48:00,
2013-11-28 12:53:00,42.1,23.8,30.28,SW,231,2.0,6.0,48,0.00,,CLR,0.00,VWS V14.01,2013-11-28 18:53:00,
2013-11-28 12:58:00,42.1,23.3,30.28,SW,222,4.0,14.0,47,0.00,,CLR,0.00,VWS V14.01,2013-11-28 18:58:00,
2013-11-28 13:03:00,42.0,23.8,30.28,SW,217,2.0,11.0,48,0.00,,CLR,0.00,VWS V14.01,2013-11-28 19:03:00,
2013-11-28 13:08:00,42.2,23.9,30.28,SSW,195,2.0,12.0,48,0.00,,CLR,0.00,VWS V14.01,2013-11-28 19:08:00,
2013-11-28 13:13:00,42.5,24.2,30.28,WSW,240,6.0,10.0,48,0.00,,CLR,0.00,VWS V14.01,2013-11-28 19:13:00,
2013-11-28 13:18:00,42.7,23.9,30.28,SW,214,7.0,13.0,47,0.00,,CLR,0.00,VWS V14.01,2013-11-28 19:18:00,
2013-11-28 13:23:00,42.9,24.1,30.28,WSW,247,4.0,9.0,47,0.00,,CLR,0.00,VWS V14.01,2013-11-28 19:23:00,
2013-11-28 13:28:00,43.0,24.2,30.28,South,182,6.0,11.0,47,0.00,,CLR,0.00,VWS V14.01,2013-11-28 19:28:00,
2013-11-28 13:33:00,43.0,24.2,30.28,South,182,5.0,7.0,47,0.00,,CLR,0.00,VWS V14.01,2013-11-28 19:33:00,
2013-11-28 13:38:00,43.1,24.3,30.28,West,261,9.0,13.0,47,0.00,,CLR,0.00,VWS V14.01,2013-11-28 19:38:00,
2013-11-28 13:43:00,43.2,24.4,30.28,WSW,243,5.0,6.0,47,0.00,,CLR,0.00,VWS V14.01,2013-11-28 19:43:00,
2013-11-28 13:48:00,43.2,24.4,30.28,SW,215,4.0,10.0,47,0.00,,CLR,0.00,VWS V14.01,2013-11-28 19:48:00,
2013-11-28 13:53:00,43.3,24.4,30.28,SSW,213,4.0,8.0,47,0.00,,CLR,0.00,VWS V14.01,2013-11-28 19:53:00,
2013-11-28 13:58:00,43.8,24.4,30.29,SW,215,11.0,11.0,46,0.00,,CLR,0.00,VWS V14.01,2013-11-28 19:58:00,
2013-11-28 14:03:00,44.1,24.7,30.29,SSW,202,1.0,8.0,46,0.00,,CLR,0.00,VWS V14.01,2013-11-28 20:03:00,
2013-11-28 14:08:00,44.6,25.1,30.29,SW,233,2.0,8.0,46,0.00,,CLR,0.00,VWS V14.01,2013-11-28 20:08:00,
2013-11-28 14:13:00,45.1,24.5,30.29,SW,229,10.0,13.0,44,0.00,,CLR,0.00,VWS V14.01,2013-11-28 20:13:00,
2013-11-28 14:18:00,44.8,24.2,30.29,WSW,254,7.0,13.0,44,0.00,,CLR,0.00,VWS V14.01,2013-11-28 20:18:00,
2013-11-28 14:23:00,44.6,24.6,30.29,SW,229,2.0,5.0,45,0.00,,CLR,0.00,VWS V14.01,2013-11-28 20:23:00,
2013-11-28 14:28:00,44.9,24.3,30.29,SW,233,5.0,9.0,44,0.00,,CLR,0.00,VWS V14.01,2013-11-28 20:28:00,
2013-11-28 14:33:00,45.0,24.4,30.29,SW,235,0.0,7.0,44,0.00,,CLR,0.00,VWS V14.01,2013-11-28 20:33:00,
2013-11-28 14:38:00,45.2,24.6,30.30,SSE,162,6.0,10.0,44,0.00,,CLR,0.00,VWS V14.01,2013-11-28 20:38:00,
2013-11-28 14:43:00,45.2,24.6,30.29,SSW,212,4.0,8.0,44,0.00,,CLR,0.00,VWS V14.01,2013-11-28 20:43:00,
2013-11-28 14:48:00,45.2,24.6,30.30,WNW,284,1.0,8.0,44,0.00,,CLR,0.00,VWS V14.01,2013-11-28 20:48:00,
2013-11-28 14:53:00,45.3,24.7,30.30,WSW,254,2.0,9.0,44,0.00,,CLR,0.00,VWS V14.01,2013-11-28 20:53:00,
2013-11-28 14:58:00,45.3,24.7,30.30,SW,231,4.0,9.0,44,0.00,,CLR,0.00,VWS V14.01,2013-11-28 20:58:00,
2013-11-28 15:03:00,45.5,24.9,30.30,WSW,255,3.0,4.0,44,0.00,,CLR,0.00,VWS V14.01,2013-11-28 21:03:00,
2013-11-28 15:08:00,45.7,24.5,30.30,West,264,7.0,11.0,43,0.00,,CLR,0.00,VWS V14.01,2013-11-28 21:08:00,
2013-11-28 15:13:00,45.7,25.0,30.31,West,273,3.0,4.0,44,0.00,,CLR,0.00,VWS V14.01,2013-11-28 21:13:00,
2013-11-28 15:18:00,45.8,25.1,30.31,West,264,0.0,7.0,44,0.00,,CLR,0.00,VWS V14.01,2013-11-28 21:18:00,
2013-11-28 15:23:00,46.0,25.3,30.32,WSW,240,4.0,7.0,44,0.00,,CLR,0.00,VWS V14.01,2013-11-28 21:23:00,
2013-11-28 15:28:00,46.0,25.3,30.32,WSW,246,2.0,7.0,44,0.00,,CLR,0.00,VWS V14.01,2013-11-28 21:28:00,
2013-11-28 15:33:00,46.1,25.4,30.33,West,274,3.0,4.0,44,0.00,,CLR,0.00,VWS V14.01,2013-11-28 21:33:00,
2013-11-28 15:38:00,46.0,25.3,30.33,WSW,247,1.0,7.0,44,0.00,,CLR,0.00,VWS V14.01,2013-11-28 21:38:00,
2013-11-28 15:43:00,45.9,25.2,30.33,WSW,248,0.0,5.0,44,0.00,,CLR,0.00,VWS V14.01,2013-11-28 21:43:00,
2013-11-28 15:48:00,46.0,25.9,30.33,WSW,248,3.0,5.0,45,0.00,,CLR,0.00,VWS V14.01,2013-11-28 21:48:00,
2013-11-28 15:53:00,46.1,26.0,30.33,WSW,248,0.0,1.0,45,0.00,,CLR,0.00,VWS V14.01,2013-11-28 21:53:00,
2013-11-28 15:58:00,46.0,25.9,30.34,WSW,248,0.0,2.0,45,0.00,,CLR,0.00,VWS V14.01,2013-11-28 21:58:00,
2013-11-28 16:03:00,46.0,25.3,30.34,WSW,258,1.0,4.0,44,0.00,,CLR,0.00,VWS V14.01,2013-11-28 22:03:00,
2013-11-28 16:08:00,45.5,25.4,30.34,WSW,254,0.0,5.0,45,0.00,,CLR,0.00,VWS V14.01,2013-11-28 22:08:00,
2013-11-28 16:13:00,45.1,25.6,30.33,WSW,254,0.0,2.0,46,0.00,,CLR,0.00,VWS V14.01,2013-11-28 22:13:00,
2013-11-28 16:18:00,44.8,25.3,30.34,WSW,254,0.0,2.0,46,0.00,,CLR,0.00,VWS V14.01,2013-11-28 22:18:00,
2013-11-28 16:23:00,44.4,25.5,30.34,WSW,254,0.0,0.0,47,0.00,,CLR,0.00,VWS V14.01,2013-11-28 22:23:00,
2013-11-28 16:28:00,44.0,25.6,30.34,WSW,254,0.0,1.0,48,0.00,,CLR,0.00,VWS V14.01,2013-11-28 22:28:00,
2013-11-28 16:33:00,43.7,25.3,30.35,WSW,254,0.0,0.0,48,0.00,,CLR,0.00,VWS V14.01,2013-11-28 22:33:00,
2013-11-28 16:38:00,43.2,25.4,30.35,WSW,254,0.0,0.0,49,0.00,,CLR,0.00,VWS V14.01,2013-11-28 22:38:00,
2013-11-28 16:43:00,42.8,25.5,30.35,WSW,254,0.0,0.0,50,0.00,,CLR,0.00,VWS V14.01,2013-11-28 22:43:00,
2013-11-28 16:48:00,42.3,25.5,30.36,WSW,254,0.0,0.0,51,0.00,,CLR,0.00,VWS V14.01,2013-11-28 22:48:00,
2013-11-28 16:53:00,41.9,25.1,30.36,WSW,254,0.0,0.0,51,0.00,,CLR,0.00,VWS V14.01,2013-11-28 22:53:00,
2013-11-28 16:58:00,41.4,25.1,30.36,WSW,254,0.0,0.0,52,0.00,,CLR,0.00,VWS V14.01,2013-11-28 22:58:00,
2013-11-28 17:03:00,41.0,25.2,30.36,WSW,254,0.0,0.0,53,0.00,,CLR,0.00,VWS V14.01,2013-11-28 23:03:00,
2013-11-28 17:08:00,40.6,25.3,30.37,WSW,254,0.0,0.0,54,0.00,,CLR,0.00,VWS V14.01,2013-11-28 23:08:00,
2013-11-28 17:13:00,40.3,25.0,30.37,WSW,254,0.0,0.0,54,0.00,,CLR,0.00,VWS V14.01,2013-11-28 23:13:00,
2013-11-28 17:18:00,39.9,25.1,30.38,WSW,254,0.0,0.0,55,0.00,,CLR,0.00,VWS V14.01,2013-11-28 23:18:00,
2013-11-28 17:23:00,39.6,24.8,30.38,WSW,254,0.0,0.0,55,0.00,,CLR,0.00,VWS V14.01,2013-11-28 23:23:00,
2013-11-28 17:28:00,39.3,24.9,30.38,WSW,254,0.0,0.0,56,0.00,,CLR,0.00,VWS V14.01,2013-11-28 23:28:00,
2013-11-28 17:33:00,39.0,25.1,30.39,WSW,254,0.0,0.0,57,0.00,,CLR,0.00,VWS V14.01,2013-11-28 23:33:00,
2013-11-28 17:38:00,38.7,24.8,30.39,WSW,254,0.0,0.0,57,0.00,,CLR,0.00,VWS V14.01,2013-11-28 23:38:00,
2013-11-28 17:43:00,38.4,24.9,30.39,WSW,254,0.0,0.0,58,0.00,,CLR,0.00,VWS V14.01,2013-11-28 23:43:00,
2013-11-28 17:48:00,38.0,24.5,30.39,WSW,254,0.0,0.0,58,0.00,,CLR,0.00,VWS V14.01,2013-11-28 23:48:00,
2013-11-28 17:53:00,37.6,24.6,30.39,WSW,254,0.0,0.0,59,0.00,,CLR,0.00,VWS V14.01,2013-11-28 23:53:00,
2013-11-28 17:58:00,37.2,24.6,30.40,WSW,254,0.0,0.0,60,0.00,,CLR,0.00,VWS V14.01,2013-11-28 23:58:00,
2013-11-28 18:03:00,36.8,24.2,30.40,WSW,254,0.0,0.0,60,0.00,,CLR,0.00,VWS V14.01,2013-11-29 00:03:00,
2013-11-28 18:08:00,36.5,24.3,30.40,WSW,254,0.0,0.0,61,0.00,,CLR,0.00,VWS V14.01,2013-11-29 00:08:00,
2013-11-28 18:13:00,36.1,24.4,30.40,WSW,254,0.0,0.0,62,0.00,,CLR,0.00,VWS V14.01,2013-11-29 00:13:00,
2013-11-28 18:18:00,36.0,24.6,30.40,WSW,254,0.0,0.0,63,0.00,,CLR,0.00,VWS V14.01,2013-11-29 00:18:00,
2013-11-28 18:23:00,35.9,24.5,30.41,WSW,254,0.0,0.0,63,0.00,,CLR,0.00,VWS V14.01,2013-11-29 00:23:00,
2013-11-28 18:28:00,35.6,24.3,30.41,WSW,254,0.0,0.0,63,0.00,,CLR,0.00,VWS V14.01,2013-11-29 00:28:00,
2013-11-28 18:33:00,35.3,24.4,30.41,WSW,254,0.0,0.0,64,0.00,,CLR,0.00,VWS V14.01,2013-11-29 00:33:00,
2013-11-28 18:38:00,35.1,24.2,30.41,WSW,254,0.0,0.0,64,0.00,,CLR,0.00,VWS V14.01,2013-11-29 00:38:00,
2013-11-28 18:43:00,34.9,24.0,30.41,WSW,254,0.0,0.0,64,0.00,,CLR,0.00,VWS V14.01,2013-11-29 00:43:00,
2013-11-28 18:48:00,34.7,24.1,30.41,WSW,254,0.0,0.0,65,0.00,,CLR,0.00,VWS V14.01,2013-11-29 00:48:00,
2013-11-28 18:53:00,34.6,24.1,30.42,WSW,254,0.0,0.0,65,0.00,,CLR,0.00,VWS V14.01,2013-11-29 00:53:00,
2013-11-28 18:58:00,34.4,24.2,30.42,WSW,254,0.0,0.0,66,0.00,,CLR,0.00,VWS V14.01,2013-11-29 00:58:00,
2013-11-28 19:03:00,34.1,24.0,30.42,WSW,254,0.0,0.0,66,0.00,,CLR,0.00,VWS V14.01,2013-11-29 01:03:00,
2013-11-28 19:08:00,33.8,23.7,30.42,WSW,254,0.0,0.0,66,0.00,,CLR,0.00,VWS V14.01,2013-11-29 01:08:00,
2013-11-28 19:13:00,33.6,23.8,30.42,WSW,254,0.0,0.0,67,0.00,,CLR,0.00,VWS V14.01,2013-11-29 01:13:00,
2013-11-28 19:18:00,33.4,23.6,30.42,WSW,254,0.0,0.0,67,0.00,,CLR,0.00,VWS V14.01,2013-11-29 01:18:00,
2013-11-28 19:23:00,33.3,23.9,30.42,WSW,254,0.0,0.0,68,0.00,,CLR,0.00,VWS V14.01,2013-11-29 01:23:00,
2013-11-28 19:28:00,33.2,23.8,30.42,WSW,254,0.0,0.0,68,0.00,,CLR,0.00,VWS V14.01,2013-11-29 01:28:00,
2013-11-28 19:33:00,33.2,23.8,30.42,WSW,254,0.0,0.0,68,0.00,,CLR,0.00,VWS V14.01,2013-11-29 01:33:00,
2013-11-28 19:38:00,33.2,23.8,30.43,WSW,254,0.0,0.0,68,0.00,,CLR,0.00,VWS V14.01,2013-11-29 01:38:00,
2013-11-28 19:43:00,33.0,24.0,30.43,WSW,254,0.0,0.0,69,0.00,,CLR,0.00,VWS V14.01,2013-11-29 01:43:00,
2013-11-28 19:48:00,33.0,24.0,30.43,WSW,254,0.0,0.0,69,0.00,,CLR,0.00,VWS V14.01,2013-11-29 01:48:00,
2013-11-28 19:53:00,33.0,24.3,30.43,WSW,254,0.0,0.0,70,0.00,,CLR,0.00,VWS V14.01,2013-11-29 01:53:00,
2013-11-28 19:58:00,33.0,24.3,30.43,WSW,254,0.0,0.0,70,0.00,,CLR,0.00,VWS V14.01,2013-11-29 01:58:00,
2013-11-28 20:04:00,33.1,24.4,30.44,WSW,254,0.0,0.0,70,0.00,,CLR,0.00,VWS V14.01,2013-11-29 02:04:00,
2013-11-28 20:09:00,33.1,24.4,30.44,WSW,254,0.0,0.0,70,0.00,,CLR,0.00,VWS V14.01,2013-11-29 02:09:00,
2013-11-28 20:14:00,33.2,24.5,30.45,WSW,254,0.0,0.0,70,0.00,,CLR,0.00,VWS V14.01,2013-11-29 02:14:00,
2013-11-28 20:19:00,33.3,24.6,30.45,WSW,254,0.0,0.0,70,0.00,,CLR,0.00,VWS V14.01,2013-11-29 02:19:00,
2013-11-28 20:24:00,33.3,24.6,30.45,WSW,254,0.0,0.0,70,0.00,,CLR,0.00,VWS V14.01,2013-11-29 02:24:00,
2013-11-28 20:29:00,33.2,24.5,30.45,WSW,254,0.0,0.0,70,0.00,,CLR,0.00,VWS V14.01,2013-11-29 02:29:00,
2013-11-28 20:34:00,33.2,24.5,30.45,WSW,254,0.0,1.0,70,0.00,,CLR,0.00,VWS V14.01,2013-11-29 02:34:00,
2013-11-28 20:39:00,33.1,24.4,30.46,WSW,254,1.0,1.0,70,0.00,,CLR,0.00,VWS V14.01,2013-11-29 02:39:00,
2013-11-28 20:44:00,33.1,24.4,30.46,West,259,2.0,2.0,70,0.00,,CLR,0.00,VWS V14.01,2013-11-29 02:44:00,
2013-11-28 20:49:00,33.2,24.5,30.46,West,261,0.0,2.0,70,0.00,,CLR,0.00,VWS V14.01,2013-11-29 02:49:00,
2013-11-28 20:54:00,33.2,24.5,30.46,West,261,0.0,1.0,70,0.00,,CLR,0.00,VWS V14.01,2013-11-29 02:54:00,
2013-11-28 20:59:00,33.2,24.5,30.46,West,263,0.0,2.0,70,0.00,,CLR,0.00,VWS V14.01,2013-11-29 02:59:00,
2013-11-28 21:04:00,33.2,24.5,30.46,West,263,0.0,2.0,70,0.00,,CLR,0.00,VWS V14.01,2013-11-29 03:04:00,
2013-11-28 21:09:00,33.2,24.1,30.46,West,263,0.0,2.0,69,0.00,,CLR,0.00,VWS V14.01,2013-11-29 03:09:00,
2013-11-28 21:14:00,33.2,24.1,30.46,West,263,0.0,0.0,69,0.00,,CLR,0.00,VWS V14.01,2013-11-29 03:14:00,
2013-11-28 21:19:00,33.1,24.0,30.46,West,263,0.0,0.0,69,0.00,,CLR,0.00,VWS V14.01,2013-11-29 03:19:00,
2013-11-28 21:24:00,33.0,24.0,30.46,West,263,0.0,0.0,69,0.00,,CLR,0.00,VWS V14.01,2013-11-29 03:24:00,
2013-11-28 21:29:00,32.9,23.9,30.47,West,263,0.0,0.0,69,0.00,,CLR,0.00,VWS V14.01,2013-11-29 03:29:00,
2013-11-28 21:34:00,32.8,23.8,30.47,West,263,0.0,0.0,69,0.00,,CLR,0.00,VWS V14.01,2013-11-29 03:34:00,
2013-11-28 21:39:00,32.6,23.6,30.47,West,263,0.0,0.0,69,0.00,,CLR,0.00,VWS V14.01,2013-11-29 03:39:00,
2013-11-28 21:44:00,32.4,23.4,30.47,West,263,0.0,1.0,69,0.00,,CLR,0.00,VWS V14.01,2013-11-29 03:44:00,
2013-11-28 21:49:00,32.3,23.6,30.47,West,263,0.0,1.0,70,0.00,,CLR,0.00,VWS V14.01,2013-11-29 03:49:00,
2013-11-28 21:54:00,32.0,23.3,30.47,West,263,0.0,1.0,70,0.00,,CLR,0.00,VWS V14.01,2013-11-29 03:54:00,
2013-11-28 21:59:00,31.9,23.2,30.47,West,263,0.0,1.0,70,0.00,,CLR,0.00,VWS V14.01,2013-11-29 03:59:00,
2013-11-28 22:04:00,31.7,23.4,30.47,West,263,0.0,1.0,71,0.00,,CLR,0.00,VWS V14.01,2013-11-29 04:04:00,
2013-11-28 22:09:00,31.5,23.2,30.47,West,263,0.0,1.0,71,0.00,,CLR,0.00,VWS V14.01,2013-11-29 04:09:00,
2013-11-28 22:14:00,31.4,23.1,30.47,West,263,0.0,1.0,71,0.00,,CLR,0.00,VWS V14.01,2013-11-29 04:14:00,
2013-11-28 22:19:00,31.2,23.2,30.47,West,263,0.0,1.0,72,0.00,,CLR,0.00,VWS V14.01,2013-11-29 04:19:00,
2013-11-28 22:24:00,31.1,22.8,30.48,West,263,0.0,0.0,71,0.00,,CLR,0.00,VWS V14.01,2013-11-29 04:24:00,
2013-11-28 22:29:00,30.9,23.0,30.48,West,263,0.0,0.0,72,0.00,,CLR,0.00,VWS V14.01,2013-11-29 04:29:00,
2013-11-28 22:34:00,30.7,22.8,30.48,West,263,0.0,1.0,72,0.00,,CLR,0.00,VWS V14.01,2013-11-29 04:34:00,
2013-11-28 22:39:00,30.6,23.0,30.48,West,263,0.0,1.0,73,0.00,,CLR,0.00,VWS V14.01,2013-11-29 04:39:00,
2013-11-28 22:44:00,30.5,22.9,30.49,West,263,0.0,1.0,73,0.00,,CLR,0.00,VWS V14.01,2013-11-29 04:44:00,
2013-11-28 22:49:00,30.4,22.8,30.49,West,263,0.0,1.0,73,0.00,,CLR,0.00,VWS V14.01,2013-11-29 04:49:00,
2013-11-28 22:54:00,30.3,22.7,30.49,West,263,0.0,0.0,73,0.00,,CLR,0.00,VWS V14.01,2013-11-29 04:54:00,
2013-11-28 22:59:00,30.3,22.7,30.49,West,263,0.0,0.0,73,0.00,,CLR,0.00,VWS V14.01,2013-11-29 04:59:00,
2013-11-28 23:01:00,30.2,22.6,30.49,West,263,0.0,0.0,73,0.00,,CLR,0.00,VWS V14.01,2013-11-29 05:01:00,
2013-11-28 23:04:00,30.1,22.5,30.49,West,263,0.0,0.0,73,0.00,,CLR,0.00,VWS V14.01,2013-11-29 05:04:00,
2013-11-28 23:09:00,30.0,22.7,30.49,West,263,0.0,0.0,74,0.00,,CLR,0.00,VWS V14.01,2013-11-29 05:09:00,
2013-11-28 23:11:00,29.9,22.6,30.49,West,263,0.0,0.0,74,0.00,,CLR,0.00,VWS V14.01,2013-11-29 05:11:00,
2013-11-28 23:19:00,29.8,22.5,30.49,West,263,0.0,0.0,74,0.00,,CLR,0.00,VWS V14.01,2013-11-29 05:19:00,
2013-11-28 23:24:00,29.7,22.4,30.49,West,263,0.0,0.0,74,0.00,,CLR,0.00,VWS V14.01,2013-11-29 05:24:00,
2013-11-28 23:29:00,29.6,22.4,30.50,West,263,0.0,0.0,74,0.00,,CLR,0.00,VWS V14.01,2013-11-29 05:29:00,
2013-11-28 23:34:00,29.4,22.5,30.50,West,263,0.0,0.0,75,0.00,,CLR,0.00,VWS V14.01,2013-11-29 05:34:00,
2013-11-28 23:39:00,29.2,22.3,30.50,West,263,0.0,0.0,75,0.00,,CLR,0.00,VWS V14.01,2013-11-29 05:39:00,
2013-11-28 23:44:00,29.1,22.2,30.50,West,263,0.0,0.0,75,0.00,,CLR,0.00,VWS V14.01,2013-11-29 05:44:00,
2013-11-28 23:49:00,28.9,22.0,30.50,West,263,0.0,0.0,75,0.00,,CLR,0.00,VWS V14.01,2013-11-29 05:49:00,
2013-11-28 23:54:00,28.8,21.9,30.50,West,263,0.0,0.0,75,0.00,,CLR,0.00,VWS V14.01,2013-11-29 05:54:00,
2013-11-28 23:59:00,28.7,22.1,30.51,West,263,0.0,0.0,76,0.00,,CLR,0.00,VWS V14.01,2013-11-29 05:59:00,